Tracking 19794 objects as of 23-Jul-2019
HD Live streaming from Space Station
objects crossing your sky now

FLOCK 3P 27

Track FLOCK 3P 27 now!
10-day predictions
FLOCK 3P 27 is classified as:


NORAD ID: 41963
Int'l Code: 2017-008R
Perigee: 487.9 km
Apogee: 500.2 km
Inclination: 97.4 °
Period: 94.3 minutes
Semi major axis: 6865 km
RCS: Unknown
Launch date: February 15, 2017
Source: United States (US)
Launch site: SRIHARIKOTA (SRI)
aabbcc
Your satellite tracking list
Your tracking list is empty




NASA's NSSDC Master Catalog

Two Line Element Set (TLE):
1 41963U 17008R   19203.77415156  .00001315  00000-0  53479-4 0  9992
2 41963  97.4044 270.6081 0008968  30.6012 329.5747 15.26284827135012
Source of the keplerian elements: AFSPC